Wind_Speed
13 14 13 6 1 2 9 8 15 13 14 6 10 13 12 13 4 10 16 19 20 18 14 11 13 12 12 12 12 11 11 11 10 12 11 10 12 12 13 13 12 11 10 9 8 7 6 5 5
14 14 3 2 2 5 7 13 14 14 15 14 17 18 11 5 2 18 12 19 22 17 16 12 12 12 11 11 12 11 11 11 12 11 12 12 12 12 11 10 11 10 8 7 6 5 5 3 2
15 20 3 2 4 7 5 6 13 20 20 13 7 11 10 6 11 7 19 16 22 20 16 14 11 13 12 11 12 12 12 10 10 10 10 11 11 9 10 8 9 8 6 5 3 2 2 1 1
8 7 2 3 17 13 6 13 20 19 16 8 17 12 8 6 3 14 21 18 17 19 16 13 11 12 12 11 11 11 11 10 11 10 10 9 8 8 9 6 6 5 4 3 1 1 3 2 3
8 3 3 6 18 15 8 18 14 18 15 10 13 12 9 3 14 21 20 21 18 20 16 12 12 12 13 12 10 11 11 11 9 10 8 7 7 7 6 5 4 3 1 0 2 3 4 5 6
7 1 5 3 20 23 21 20 17 7 15 17 13 14 6 11 16 16 16 18 20 20 16 12 11 12 12 11 11 10 10 10 8 8 6 5 5 6 6 5 3 1 1 3 4 5 5 6 7
9 3 7 13 13 11 20 18 18 13 15 13 19 7 8 10 22 11 14 8 22 20 16 12 10 13 12 11 9 8 8 7 6 6 7 7 8 7 7 8 4 1 2 4 5 6 7 7 8
6 4 15 9 10 3 16 10 15 15 14 17 19 9 13 21 20 15 16 21 21 18 15 16 13 13 12 10 8 8 8 8 6 5 3 6 6 5 2 4 2 1 2 5 7 8 8 10 11
11 4 7 7 9 8 14 20 10 15 17 15 13 15 28 31 22 22 16 14 16 16 17 15 11 13 15 8 8 10 9 6 2 3 4 4 2 3 3 3 4 4 4 5 7 9 7 10 10
5 7 12 9 15 15 15 16 12 14 15 9 16 26 36 31 29 24 20 15 16 17 17 14 14 12 14 12 7 7 5 4 4 5 10 11 11 7 10 10 4 6 5 4 12 10 8 14 7
5 4 11 13 12 8 17 12 14 15 11 18 18 25 29 29 26 20 25 20 18 21 24 20 17 15 13 10 10 9 7 4 6 9 7 11 6 6 8 5 11 6 1 6 6 9 10 8 3
6 9 14 11 11 9 14 9 21 19 5 20 22 25 23 23 21 20 19 22 19 18 20 16 14 11 14 8 9 6 8 7 7 6 11 13 4 8 10 7 10 10 2 4 6 6 5 5 1
2 5 8 8 13 11 10 10 19 17 15 21 22 24 23 20 24 25 23 22 19 17 15 19 14 7 11 3 10 7 0 3 13 8 10 7 10 11 15 5 3 12 14 12 8 5 6 10 8
11 17 8 12 11 5 12 9 9 10 16 20 20 21 21 20 24 25 17 20 20 19 17 16 14 11 8 4 9 7 2 4 13 10 8 9 12 10 8 12 9 11 9 5 8 6 5 12 10
16 17 8 10 11 10 8 9 7 12 16 17 20 20 21 22 23 16 22 15 13 18 17 18 16 13 9 9 6 5 4 1 8 7 9 9 5 3 8 6 7 11 13 8 10 15 15 10 14
15 25 8 9 10 9 12 4 18 11 16 17 19 20 18 21 24 22 24 18 15 19 21 19 17 16 12 11 8 3 5 1 3 10 9 7 6 14 11 8 10 11 13 13 17 17 19 16 16
20 8 15 7 16 10 11 15 9 13 15 17 18 20 15 16 23 25 28 24 18 16 23 20 18 17 14 12 6 3 3 5 0 7 10 5 8 13 3 11 9 12 15 12 14 17 19 17 19
5 9 6 13 8 18 14 14 14 18 20 19 18 21 18 16 12 26 24 27 22 17 23 20 16 20 15 13 10 7 7 2 3 5 9 5 7 7 8 3 6 7 8 13 14 13 16 16 17
7 8 11 21 18 22 6 19 24 23 20 21 19 19 22 21 17 23 21 22 25 22 23 20 15 19 17 15 11 12 16 9 7 3 3 2 4 8 12 10 9 9 7 8 11 14 15 13 12
15 7 25 19 14 12 6 18 27 25 23 23 24 21 24 23 20 21 19 23 28 25 23 22 19 18 17 13 15 10 10 10 7 9 5 2 1 5 7 8 10 8 9 4 9 10 15 11 8
20 22 27 22 20 15 9 11 24 25 21 23 21 22 21 25 25 21 22 22 26 27 28 26 21 20 19 15 12 5 2 5 2 3 6 6 1 3 3 4 6 9 13 7 10 11 10 13 15
22 24 25 16 11 12 13 9 3 22 23 24 24 22 23 22 21 21 21 24 25 28 28 27 24 22 21 17 15 12 8 9 14 13 13 7 4 3 3 2 5 6 8 7 9 11 11 14 14
22 24 19 17 10 14 12 10 13 23 23 23 25 25 24 23 23 23 24 27 28 27 29 28 29 23 22 19 14 16 14 11 5 5 7 4 8 7 4 2 3 5 8 7 6 8 9 12 12
22 25 23 15 12 14 18 15 13 12 15 22 22 24 25 25 23 24 31 34 31 28 29 30 30 28 24 23 22 14 16 14 6 11 6 8 13 11 10 3 1 4 4 5 4 5 8 9 9
23 22 14 13 14 13 18 16 6 16 6 16 22 23 23 23 22 24 24 30 34 31 31 32 32 29 28 22 22 23 16 13 11 5 7 7 9 4 11 4 1 3 3 6 3 5 5 7 6
26 23 15 17 15 16 7 10 1 21 18 32 28 23 23 23 21 22 25 28 32 29 31 31 33 31 29 27 24 22 24 16 14 10 12 11 10 5 5 2 2 5 5 4 3 1 4 6 5
25 21 23 25 21 6 8 6 9 21 20 17 21 24 23 22 22 22 21 28 31 31 31 31 33 32 31 29 27 26 23 23 19 18 18 15 15 10 10 5 6 4 4 3 4 1 1 2 2
29 18 20 17 23 11 3 4 13 11 16 17 16 25 23 22 21 21 20 27 28 30 30 30 30 33 31 29 28 27 26 25 25 18 16 16 11 10 8 5 6 4 5 6 4 5 4 1 1
19 21 20 22 17 14 12 6 10 16 20 17 14 24 24 23 20 20 19 30 31 31 31 32 31 32 30 30 28 27 27 26 24 25 20 18 17 13 10 10 11 7 8 8 6 5 3 2 1
26 26 26 16 19 15 8 5 1 17 24 14 13 24 23 22 20 19 19 28 30 31 32 33 31 31 32 29 28 29 27 26 25 24 23 21 18 16 13 12 10 10 9 10 8 6 5 5 4
Wind_Direction
173 177 193 209 152 257 102 139 121 116 114 127 70 83 96 38 21 111 134 121 120 113 115 108 104 99 98 96 98 99 93 90 90 90 92 95 92 87 89 87 88 88 89 92 98 100 93 92 102
180 184 345 303 224 113 92 111 115 107 113 109 98 108 67 71 266 124 129 108 117 124 119 111 108 108 108 104 108 103 103 102 99 101 99 97 96 97 92 92 94 92 95 100 106 105 99 92 83
221 253 134 324 274 111 134 139 134 116 137 109 91 62 77 112 119 87 121 106 111 119 114 108 111 116 113 107 105 106 107 106 110 104 106 102 99 100 94 92 90 90 91 92 89 75 88 77 22
213 345 76 204 92 92 153 152 120 143 108 100 117 90 87 22 49 132 135 142 137 120 112 117 119 115 112 104 113 105 107 107 107 112 110 111 110 102 102 102 95 93 87 88 66 347 307 292 288
90 7 42 301 111 129 183 121 131 136 113 144 105 108 105 53 121 135 158 146 129 113 116 118 126 117 115 111 109 108 106 107 109 112 120 119 114 111 119 112 96 95 99 232 266 262 270 279 286
100 311 248 274 115 128 136 141 134 177 137 110 111 115 113 152 152 161 172 153 145 121 125 125 126 123 117 112 117 113 111 117 124 128 132 125 128 137 130 120 117 140 251 269 270 275 280 289 294
138 190 264 95 61 66 133 139 132 144 129 139 131 110 126 179 176 133 121 91 121 121 131 137 130 131 126 123 123 124 129 135 132 139 144 147 164 156 143 128 112 85 314 288 285 288 292 298 299
286 16 321 36 91 354 101 107 121 131 137 142 142 145 165 170 174 148 129 115 120 127 141 139 146 142 136 132 134 135 133 119 117 153 143 183 198 185 151 210 81 67 322 308 305 305 301 302 297
235 14 262 121 113 160 154 121 132 150 132 155 188 141 148 157 158 147 157 133 126 148 149 157 155 158 144 137 135 138 135 138 147 317 36 293 306 112 240 205 8 33 18 356 339 318 329 329 337
135 157 263 102 128 170 135 106 128 125 135 146 85 118 142 159 153 160 155 166 167 174 171 158 145 153 165 140 151 168 162 103 82 354 343 35 5 9 106 45 334 326 24 18 18 293 346 331 278
42 236 251 103 165 195 119 120 154 144 152 131 129 141 152 157 163 160 160 169 191 171 172 160 144 170 172 145 172 173 161 156 116 67 357 58 34 42 49 50 20 2 327 103 49 14 172 34 78
11 290 80 84 68 115 67 143 94 80 322 128 134 149 158 154 154 163 166 182 174 159 156 151 149 175 125 167 180 143 137 81 167 75 45 22 33 48 48 24 38 42 43 121 30 357 246 287 258
79 298 99 94 81 77 159 114 130 132 141 130 143 154 158 165 156 176 186 175 162 159 138 130 144 121 141 195 100 128 330 105 101 88 60 54 24 9 343 347 40 30 40 34 34 6 350 330 304
177 288 120 136 101 180 116 82 147 124 134 132 152 161 158 173 164 179 185 172 164 148 145 132 147 151 151 111 137 103 135 100 95 93 86 44 57 92 41 26 28 49 30 23 8 328 330 354 353
313 266 166 166 155 148 88 114 75 142 148 147 161 171 165 181 167 172 183 150 168 153 154 144 153 163 156 144 150 183 156 46 128 96 91 60 36 340 344 20 28 29 15 357 2 352 21 355 357
215 242 226 4 339 164 109 44 286 168 158 158 175 170 174 176 169 175 188 170 180 160 149 157 164 160 159 154 182 213 132 21 84 138 93 71 31 16 1 56 45 11 0 24 13 0 358 1 341
251 200 153 222 254 250 148 165 224 214 165 169 181 166 173 170 175 180 184 176 180 153 150 174 171 156 163 158 177 160 177 154 227 138 86 61 32 43 350 34 27 19 25 37 19 355 352 351 354
313 32 346 213 222 219 184 188 190 202 172 172 184 169 172 172 199 167 189 180 163 178 154 180 164 159 159 166 184 182 173 239 154 102 77 44 12 9 347 20 31 18 17 23 13 1 351 8 4
356 15 207 292 264 211 210 172 186 179 177 169 183 188 172 181 191 179 185 174 165 176 161 184 173 158 160 170 183 210 191 211 190 135 107 82 11 359 5 3 0 11 29 22 6 355 355 341 12
155 76 272 237 293 198 210 179 171 180 182 174 176 193 177 179 184 181 194 182 173 167 173 183 178 171 176 185 198 197 231 184 101 116 130 156 13 352 3 359 5 4 4 17 20 19 359 0 360
247 168 242 268 182 252 230 244 153 180 185 171 182 184 199 183 171 178 187 185 185 171 173 179 183 183 190 190 205 208 113 89 114 220 206 173 189 328 332 347 349 340 347 14 7 30 18 356 12
249 209 228 229 258 253 193 248 295 179 183 180 177 185 190 194 182 173 182 184 206 173 173 179 187 187 192 209 194 195 199 205 217 212 148 154 208 254 277 346 342 337 346 12 19 15 10 8 8
250 256 265 252 250 273 222 227 209 222 182 183 184 179 189 190 192 178 185 186 203 183 177 181 184 190 193 206 200 186 212 222 170 178 159 206 223 244 224 267 335 340 344 355 26 11 16 25 18
239 252 258 254 274 249 252 249 245 184 188 178 190 182 180 184 195 173 186 183 198 192 181 182 183 190 194 197 209 198 209 231 241 203 182 233 246 225 197 182 11 314 330 24 17 8 30 24 22
220 238 241 232 237 244 249 249 51 143 38 303 185 186 182 177 186 175 183 176 189 194 187 183 182 187 193 195 202 212 210 216 233 217 203 248 288 272 167 166 10 347 340 342 354 17 16 18 11
229 229 238 230 232 244 26 301 39 124 128 237 252 180 178 182 180 185 178 177 181 189 187 184 183 186 191 196 201 205 214 217 217 220 227 244 247 292 139 99 268 257 268 290 329 284 25 2 360
234 225 235 250 251 195 344 301 187 187 215 227 205 170 175 181 178 181 184 174 177 186 191 189 182 186 190 196 201 206 207 208 216 222 228 233 252 263 270 240 227 184 253 236 231 237 280 11 322
229 231 226 239 251 243 155 319 259 260 261 214 169 168 170 172 175 175 182 173 179 185 192 190 186 187 190 195 200 202 205 209 213 219 226 219 228 224 236 227 208 219 223 226 228 283 198 237 306
212 233 226 239 242 251 202 202 243 276 278 229 176 167 163 169 174 171 177 171 177 183 191 191 193 186 190 193 198 200 202 207 214 222 219 222 230 233 230 229 238 220 233 217 220 246 207 176 280
219 219 234 239 239 259 272 223 93 305 278 225 175 150 157 165 172 167 176 169 175 183 187 189 193 188 189 192 196 197 198 203 209 214 221 225 224 223 223 227 236 238 225 214 216 229 191 205 217
Height
751 754 757 757 771 778 766 767 751 769 769 759 754 766 788 793 798 811 796 798 802 807 810 812 813 814 815 816 817 817 818 818 818 819 820 820 820 821 820 821 821 821 821 821 820 820 821 821 820
752 754 760 751 773 784 778 753 759 751 760 755 758 771 784 803 789 792 797 800 803 808 812 814 815 816 816 817 818 818 819 820 820 821 821 822 822 823 823 823 822 822 822 821 821 821 821 821 821
749 748 751 774 767 776 782 761 749 752 753 758 771 772 781 797 789 795 800 803 806 809 812 815 817 817 818 819 819 820 821 821 822 823 824 825 825 825 824 825 824 824 823 823 822 821 821 820 820
745 753 755 771 758 756 766 753 745 752 749 756 767 787 788 796 796 797 802 805 807 811 813 816 817 819 819 820 821 822 822 823 824 825 826 826 826 826 826 826 825 825 824 822 821 821 820 819 819
753 775 784 781 745 749 754 740 747 751 753 763 760 784 795 797 797 799 801 806 808 811 815 818 818 819 820 821 822 823 824 825 825 826 826 826 826 827 827 826 825 824 823 821 819 819 818 818 819
764 772 789 760 735 734 737 740 754 758 754 761 776 783 798 798 799 800 802 804 808 812 815 819 819 820 822 822 823 824 825 825 825 825 825 825 825 823 822 823 823 822 821 820 819 820 820 821 821
744 777 775 742 748 742 733 728 745 750 759 762 764 787 796 799 797 800 801 805 807 811 816 819 820 822 822 823 824 825 825 824 824 822 820 819 819 820 822 820 820 821 821 821 822 824 826 825 822
715 764 753 733 746 760 727 737 730 742 753 752 758 783 797 794 797 800 803 806 808 813 817 819 821 822 823 824 824 825 825 825 823 819 824 815 816 826 819 824 818 820 822 824 826 827 827 825 821
708 789 770 740 742 750 731 736 734 734 744 750 750 757 775 789 795 800 805 808 811 814 815 818 820 822 824 824 825 825 826 826 824 823 815 820 818 824 822 822 819 820 823 824 826 826 826 825 824
716 757 743 713 720 726 722 723 731 742 750 754 756 760 777 788 792 798 803 806 811 813 813 816 820 822 823 825 825 824 825 825 823 820 818 826 823 823 818 818 820 823 825 826 825 823 827 825 825
706 738 718 706 706 707 715 725 722 738 753 755 765 772 780 783 792 795 799 805 806 807 811 815 818 820 821 823 823 825 826 828 825 824 822 830 831 829 819 823 825 823 824 825 823 821 824 822 818
723 704 699 702 700 710 727 720 741 748 764 746 759 772 779 783 789 796 796 802 801 804 809 813 817 820 821 823 824 824 828 827 828 826 827 829 828 825 824 826 824 823 824 825 824 823 824 821 820
717 706 701 706 708 713 715 723 734 743 740 747 759 769 775 782 789 795 793 796 800 804 808 812 818 820 823 825 824 825 828 829 830 832 833 832 829 827 825 825 826 823 823 824 825 824 822 820 819
725 713 704 705 715 716 724 734 730 741 738 750 760 768 776 783 784 790 791 794 798 803 809 814 819 822 824 825 824 827 826 828 829 833 834 833 831 826 823 825 828 825 822 820 819 818 817 818 817
717 726 710 709 713 722 719 745 746 740 741 754 761 768 774 781 783 789 791 794 798 803 810 815 820 823 825 826 826 827 827 827 828 830 832 833 830 830 830 829 824 825 822 821 818 815 816 815 813
736 731 738 727 720 725 729 806 758 739 744 757 759 764 770 775 784 788 793 795 799 803 809 815 818 822 825 827 827 828 831 828 828 828 830 832 837 841 839 832 826 826 825 823 821 819 817 818 815
720 738 746 749 716 732 726 778 754 739 743 755 757 760 769 773 780 785 790 795 798 803 808 814 817 821 825 827 829 829 829 830 828 830 829 830 837 838 835 832 829 828 827 825 825 823 820 818 817
745 758 754 750 724 720 728 745 749 737 742 750 753 756 766 773 776 781 785 791 797 803 808 813 816 819 824 827 829 830 831 830 830 831 830 830 832 836 835 830 830 829 828 828 827 826 824 821 819
730 756 780 743 719 720 710 737 735 730 737 746 752 751 759 766 773 778 783 788 796 801 806 812 815 819 823 826 828 829 831 829 830 830 832 833 833 833 831 831 832 831 830 830 829 827 825 823 822
733 771 764 758 706 702 707 719 717 725 728 732 741 748 749 761 768 774 781 785 791 797 804 810 814 818 822 825 826 828 828 828 829 831 833 834 835 834 834 833 833 831 832 831 830 830 827 825 824
717 740 736 729 727 695 703 716 726 719 718 726 733 740 742 746 759 768 776 782 786 793 800 807 812 816 820 823 825 826 827 828 829 831 832 834 835 835 835 834 834 832 831 831 830 830 829 826 826
726 700 704 718 713 729 694 745 718 713 718 717 725 733 740 743 749 760 771 778 782 787 796 802 809 814 818 820 823 825 827 828 828 829 831 833 834 834 834 833 833 832 832 831 831 831 830 829 827
712 687 692 693 704 709 707 727 708 699 712 711 710 720 729 735 740 750 763 772 778 783 790 798 805 811 815 818 820 823 826 827 827 829 830 832 832 832 832 832 832 832 832 831 831 831 831 831 829
686 694 693 692 703 732 706 707 701 698 699 699 701 705 715 726 732 741 755 765 773 778 785 793 800 806 811 815 818 821 824 824 826 827 828 829 829 828 830 831 831 832 832 831 831 831 831 831 831
689 706 734 743 739 735 689 701 702 691 702 713 694 696 703 712 722 732 743 754 764 770 778 785 793 800 806 811 815 818 821 823 825 826 827 828 828 828 828 829 830 831 830 831 831 832 832 831 830
691 698 720 755 740 720 689 713 699 702 710 694 696 682 693 703 713 722 732 743 755 763 771 778 786 794 801 806 811 814 818 821 823 825 826 827 828 828 827 828 829 829 829 830 831 832 832 831 831
689 700 681 705 692 717 744 704 705 692 685 662 670 676 687 696 704 715 724 735 747 757 765 772 780 788 794 801 806 810 813 817 820 822 823 824 824 825 826 826 827 827 828 829 831 830 830 831 830
672 669 706 695 735 742 761 756 733 711 690 662 661 671 679 688 698 708 718 730 742 752 760 767 774 781 788 795 800 804 808 812 815 818 820 820 822 823 824 825 825 826 828 829 830 830 829 829 831
679 683 680 681 688 715 740 738 692 695 686 658 654 659 670 682 691 701 712 724 736 747 755 762 769 776 782 788 793 798 802 806 810 813 814 816 818 820 821 823 823 824 827 828 828 828 828 829 830
658 675 676 694 706 686 698 721 686 688 676 646 646 653 664 674 684 695 706 717 729 739 747 755 762 769 775 781 787 791 796 800 804 807 809 811 814 816 819 821 822 823 825 827 827 827 827 828 829